Year,Month,Day,Hour,Minute,Value (Times are PST for barometer in hPa)
2010,04,03,11,17,1008.64
2010,04,03,11,18,1008.64
2010,04,03,11,19,1008.60
2010,04,03,11,20,1008.55
2010,04,03,11,21,1008.53
2010,04,03,11,22,1008.53
2010,04,03,11,23,1008.59
2010,04,03,11,24,1008.62
2010,04,03,11,25,1008.60
2010,04,03,11,26,1008.58
2010,04,03,11,27,1008.62
2010,04,03,11,28,1008.65
2010,04,03,11,29,1008.66
2010,04,03,11,30,1008.67
2010,04,03,11,31,1008.67
2010,04,03,11,32,1008.68
2010,04,03,11,33,1008.70
2010,04,03,11,34,1008.76
2010,04,03,11,35,1008.69
2010,04,03,11,36,1008.60
2010,04,03,11,37,1008.57
2010,04,03,11,38,1008.60
2010,04,03,11,39,1008.66
2010,04,03,11,40,1008.70
2010,04,03,11,41,1008.76
2010,04,03,11,42,1008.75
2010,04,03,11,43,1008.71
2010,04,03,11,44,1008.71
2010,04,03,11,45,1008.72
2010,04,03,11,46,1008.67
2010,04,03,11,47,1008.64
2010,04,03,11,48,1008.67
2010,04,03,11,49,1008.65
2010,04,03,11,50,1008.66
2010,04,03,11,51,1008.72
2010,04,03,11,52,1008.70
2010,04,03,11,53,1008.69
2010,04,03,11,54,1008.68
2010,04,03,11,55,1008.62
2010,04,03,11,56,1008.59
2010,04,03,11,57,1008.56
2010,04,03,11,58,1008.59
2010,04,03,11,59,1008.66
2010,04,03,12,00,1008.67
2010,04,03,12,01,1008.69
2010,04,03,12,02,1008.70
2010,04,03,12,03,1008.70
2010,04,03,12,04,1008.70
2010,04,03,12,05,1008.70
2010,04,03,12,06,1008.72
2010,04,03,12,07,1008.78
2010,04,03,12,08,1008.79
2010,04,03,12,09,1008.71
2010,04,03,12,10,1008.73
2010,04,03,12,11,1008.81
2010,04,03,12,12,1008.84
2010,04,03,12,13,1008.76
2010,04,03,12,14,1008.72
2010,04,03,12,15,1008.78
2010,04,03,12,16,1008.81
2010,04,03,12,17,1008.81
2010,04,03,12,18,1008.81
2010,04,03,12,19,1008.83
2010,04,03,12,20,1008.83
2010,04,03,12,21,1008.83
2010,04,03,12,22,1008.84
2010,04,03,12,23,1008.85
2010,04,03,12,24,1008.89
2010,04,03,12,25,1008.93
2010,04,03,12,26,1008.92
2010,04,03,12,27,1008.93
2010,04,03,12,28,1008.94
2010,04,03,12,29,1008.94
2010,04,03,12,30,1008.94
2010,04,03,12,31,1008.94
2010,04,03,12,32,1008.90
2010,04,03,12,33,1008.87
2010,04,03,12,34,1008.92
2010,04,03,12,35,1008.96
2010,04,03,12,36,1008.94
2010,04,03,12,37,1008.91
2010,04,03,12,38,1008.89
2010,04,03,12,39,1008.92
2010,04,03,12,40,1008.94
2010,04,03,12,41,1008.94
2010,04,03,12,42,1008.94
2010,04,03,12,43,1008.92
2010,04,03,12,44,1008.89
2010,04,03,12,45,1008.91
2010,04,03,12,46,1008.90
2010,04,03,12,47,1008.89
2010,04,03,12,48,1008.93
2010,04,03,12,49,1008.92
2010,04,03,12,50,1008.91
2010,04,03,12,51,1008.91
2010,04,03,12,52,1008.91
2010,04,03,12,53,1008.94
2010,04,03,12,54,1008.95
2010,04,03,12,55,1008.98
2010,04,03,12,56,1008.96
2010,04,03,12,57,1008.93
2010,04,03,12,58,1008.96
2010,04,03,12,59,1009.01
2010,04,03,13,00,1008.99
2010,04,03,13,01,1008.96
2010,04,03,13,02,1008.95
2010,04,03,13,03,1008.96
2010,04,03,13,04,1008.97
2010,04,03,13,05,1008.95
2010,04,03,13,06,1008.93
2010,04,03,13,07,1008.91
2010,04,03,13,08,1008.93
2010,04,03,13,09,1008.92
2010,04,03,13,10,1008.94
2010,04,03,13,11,1008.95
2010,04,03,13,12,1008.90
2010,04,03,13,13,1008.94
2010,04,03,13,14,1009.01
2010,04,03,13,15,1008.96
2010,04,03,13,16,1008.89
2010,04,03,13,17,1008.85
2010,04,03,13,18,1008.84
2010,04,03,13,19,1008.84
2010,04,03,13,20,1008.84
2010,04,03,13,21,1008.84
2010,04,03,13,22,1008.85
2010,04,03,13,23,1008.87
2010,04,03,13,24,1008.84
2010,04,03,13,25,1008.79
2010,04,03,13,26,1008.79
2010,04,03,13,27,1008.81
2010,04,03,13,28,1008.84
2010,04,03,13,29,1008.89
2010,04,03,13,30,1008.89
2010,04,03,13,31,1008.84
2010,04,03,13,32,1008.79
2010,04,03,13,33,1008.81
2010,04,03,13,34,1008.84
2010,04,03,13,35,1008.84
2010,04,03,13,36,1008.84
2010,04,03,13,37,1008.84
2010,04,03,13,38,1008.84
2010,04,03,13,39,1008.86
2010,04,03,13,40,1008.91
2010,04,03,13,41,1008.90
2010,04,03,13,42,1008.91
2010,04,03,13,43,1008.94
2010,04,03,13,44,1008.96
2010,04,03,13,45,1009.01
2010,04,03,13,46,1009.00
2010,04,03,13,47,1008.94
2010,04,03,13,48,1008.91
2010,04,03,13,49,1008.86
2010,04,03,13,50,1008.83
2010,04,03,13,51,1008.79
2010,04,03,13,52,1008.78
2010,04,03,13,53,1008.81
2010,04,03,13,54,1008.81
2010,04,03,13,55,1008.77
2010,04,03,13,56,1008.74
2010,04,03,13,57,1008.74
2010,04,03,13,58,1008.76
2010,04,03,13,59,1008.77
2010,04,03,14,00,1008.76
2010,04,03,14,01,1008.76
2010,04,03,14,02,1008.79
2010,04,03,14,03,1008.79
2010,04,03,14,04,1008.77
2010,04,03,14,05,1008.77
2010,04,03,14,06,1008.75
2010,04,03,14,07,1008.70
2010,04,03,14,08,1008.71
2010,04,03,14,09,1008.69
2010,04,03,14,10,1008.62
2010,04,03,14,11,1008.64
2010,04,03,14,12,1008.67
2010,04,03,14,13,1008.71
2010,04,03,14,14,1008.78
2010,04,03,14,15,1008.79
2010,04,03,14,16,1008.77
2010,04,03,14,17,1008.79
2010,04,03,14,18,1008.79
2010,04,03,14,19,1008.75
2010,04,03,14,20,1008.78
2010,04,03,14,21,1008.81
2010,04,03,14,22,1008.84
2010,04,03,14,23,1008.83
2010,04,03,14,24,1008.88
2010,04,03,14,25,1008.94
2010,04,03,14,26,1008.94
2010,04,03,14,27,1008.94
2010,04,03,14,28,1008.99
2010,04,03,14,29,1009.00
2010,04,03,14,30,1009.01
2010,04,03,14,31,1009.08
2010,04,03,14,32,1009.15
2010,04,03,14,33,1009.16
2010,04,03,14,34,1009.17
2010,04,03,14,35,1009.21
2010,04,03,14,36,1009.23
2010,04,03,14,37,1009.25
2010,04,03,14,38,1009.27
2010,04,03,14,39,1009.24
2010,04,03,14,40,1009.17
2010,04,03,14,41,1009.14
2010,04,03,14,42,1009.16
2010,04,03,14,43,1009.16
2010,04,03,14,44,1009.12
2010,04,03,14,45,1009.11
2010,04,03,14,46,1009.09
2010,04,03,14,47,1009.10
2010,04,03,14,48,1009.11
2010,04,03,14,49,1009.13
2010,04,03,14,50,1009.12
2010,04,03,14,51,1009.12
2010,04,03,14,52,1009.14
2010,04,03,14,53,1009.11
2010,04,03,14,54,1009.06
2010,04,03,14,55,1009.04
2010,04,03,14,56,1008.99
2010,04,03,14,57,1008.94
2010,04,03,14,58,1008.96
2010,04,03,14,59,1008.94
2010,04,03,15,00,1008.89
2010,04,03,15,01,1008.87
2010,04,03,15,02,1008.87
2010,04,03,15,03,1008.85
2010,04,03,15,04,1008.82
2010,04,03,15,05,1008.77
2010,04,03,15,06,1008.76
2010,04,03,15,07,1008.75
2010,04,03,15,08,1008.74
2010,04,03,15,09,1008.74
2010,04,03,15,10,1008.76
2010,04,03,15,11,1008.75
2010,04,03,15,12,1008.74
2010,04,03,15,13,1008.71
2010,04,03,15,14,1008.68
2010,04,03,15,15,1008.70
2010,04,03,15,16,1008.72
2010,04,03,15,17,1008.72
2010,04,03,15,18,1008.68
2010,04,03,15,19,1008.65
2010,04,03,15,20,1008.66
2010,04,03,15,21,1008.67
2010,04,03,15,22,1008.67
2010,04,03,15,23,1008.67
2010,04,03,15,24,1008.69
2010,04,03,15,25,1008.67
2010,04,03,15,26,1008.70
2010,04,03,15,27,1008.71
2010,04,03,15,28,1008.67
2010,04,03,15,29,1008.67
2010,04,03,15,30,1008.67
2010,04,03,15,31,1008.63
2010,04,03,15,32,1008.62
2010,04,03,15,33,1008.62
2010,04,03,15,34,1008.60
2010,04,03,15,35,1008.60
2010,04,03,15,36,1008.58
2010,04,03,15,37,1008.60
2010,04,03,15,38,1008.58
2010,04,03,15,39,1008.55
2010,04,03,15,40,1008.57
2010,04,03,15,41,1008.57
2010,04,03,15,42,1008.55
2010,04,03,15,43,1008.55
2010,04,03,15,44,1008.57
2010,04,03,15,45,1008.57
2010,04,03,15,46,1008.59
2010,04,03,15,47,1008.58
2010,04,03,15,48,1008.55
2010,04,03,15,49,1008.53
2010,04,03,15,50,1008.55
2010,04,03,15,51,1008.57
2010,04,03,15,52,1008.59
2010,04,03,15,53,1008.56
2010,04,03,15,54,1008.53
2010,04,03,15,55,1008.55
2010,04,03,15,56,1008.55
2010,04,03,15,57,1008.51
2010,04,03,15,58,1008.48
2010,04,03,15,59,1008.50
2010,04,03,16,00,1008.53
2010,04,03,16,01,1008.55
2010,04,03,16,02,1008.60
2010,04,03,16,03,1008.60
2010,04,03,16,04,1008.59
2010,04,03,16,05,1008.55
2010,04,03,16,06,1008.52
2010,04,03,16,07,1008.51
2010,04,03,16,08,1008.54
2010,04,03,16,09,1008.55
2010,04,03,16,10,1008.55
2010,04,03,16,11,1008.53
2010,04,03,16,12,1008.54
2010,04,03,16,13,1008.59
2010,04,03,16,14,1008.60
2010,04,03,16,15,1008.62
2010,04,03,16,16,1008.64
2010,04,03,16,17,1008.62
2010,04,03,16,18,1008.60
2010,04,03,16,19,1008.62
2010,04,03,16,20,1008.64
2010,04,03,16,21,1008.62
2010,04,03,16,22,1008.64
2010,04,03,16,23,1008.68
2010,04,03,16,24,1008.68
2010,04,03,16,25,1008.64
2010,04,03,16,26,1008.60
2010,04,03,16,27,1008.60
2010,04,03,16,28,1008.62
2010,04,03,16,29,1008.62
2010,04,03,16,30,1008.62
2010,04,03,16,31,1008.62
2010,04,03,16,32,1008.64
2010,04,03,16,33,1008.65
2010,04,03,16,34,1008.64
2010,04,03,16,35,1008.62
2010,04,03,16,36,1008.58
2010,04,03,16,37,1008.57
2010,04,03,16,38,1008.55
2010,04,03,16,39,1008.51
2010,04,03,16,40,1008.48
2010,04,03,16,41,1008.47
2010,04,03,16,42,1008.43
2010,04,03,16,43,1008.40
2010,04,03,16,44,1008.42
2010,04,03,16,45,1008.43
2010,04,03,16,46,1008.47
2010,04,03,16,47,1008.48
2010,04,03,16,48,1008.47
2010,04,03,16,49,1008.45
2010,04,03,16,50,1008.41
2010,04,03,16,51,1008.42
2010,04,03,16,52,1008.43
2010,04,03,16,53,1008.43
2010,04,03,16,54,1008.41
2010,04,03,16,55,1008.42
2010,04,03,16,56,1008.43
2010,04,03,16,57,1008.41
2010,04,03,16,58,1008.40
2010,04,03,16,59,1008.38
2010,04,03,17,00,1008.33
2010,04,03,17,01,1008.32
2010,04,03,17,02,1008.31
2010,04,03,17,03,1008.32
2010,04,03,17,04,1008.29
2010,04,03,17,05,1008.32
2010,04,03,17,06,1008.40
2010,04,03,17,07,1008.43
2010,04,03,17,08,1008.45
2010,04,03,17,09,1008.45
2010,04,03,17,10,1008.41
2010,04,03,17,11,1008.40
2010,04,03,17,12,1008.40
2010,04,03,17,13,1008.42
2010,04,03,17,14,1008.43
2010,04,03,17,15,1008.41
2010,04,03,17,16,1008.40
2010,04,03,17,17,1008.40
2010,04,03,17,18,1008.38
2010,04,03,17,19,1008.39
2010,04,03,17,20,1008.39
2010,04,03,17,21,1008.35
2010,04,03,17,22,1008.31
2010,04,03,17,23,1008.30
2010,04,03,17,24,1008.28
2010,04,03,17,25,1008.26
2010,04,03,17,26,1008.28
2010,04,03,17,27,1008.26
2010,04,03,17,28,1008.25
2010,04,03,17,29,1008.24
2010,04,03,17,30,1008.23
2010,04,03,17,31,1008.23
2010,04,03,17,32,1008.27
2010,04,03,17,33,1008.28
2010,04,03,17,34,1008.24
2010,04,03,17,35,1008.25
2010,04,03,17,36,1008.28
2010,04,03,17,37,1008.28
2010,04,03,17,38,1008.24
2010,04,03,17,39,1008.23
2010,04,03,17,40,1008.25
2010,04,03,17,41,1008.24
2010,04,03,17,42,1008.23
2010,04,03,17,43,1008.17
2010,04,03,17,44,1008.15
2010,04,03,17,45,1008.16
2010,04,03,17,46,1008.16
2010,04,03,17,47,1008.14
2010,04,03,17,48,1008.11
2010,04,03,17,49,1008.09
2010,04,03,17,50,1008.07
2010,04,03,17,51,1008.06
2010,04,03,17,52,1008.06
2010,04,03,17,53,1008.08
2010,04,03,17,54,1008.09
2010,04,03,17,55,1008.09
2010,04,03,17,56,1008.06
2010,04,03,17,57,1008.05
2010,04,03,17,58,1008.04
2010,04,03,17,59,1008.06
2010,04,03,18,00,1008.06
2010,04,03,18,01,1008.05
2010,04,03,18,02,1008.11
2010,04,03,18,03,1008.16
2010,04,03,18,04,1008.14
2010,04,03,18,05,1008.15
2010,04,03,18,06,1008.12
2010,04,03,18,07,1008.09
2010,04,03,18,08,1008.09
2010,04,03,18,09,1008.11
2010,04,03,18,10,1008.09
2010,04,03,18,11,1008.10
2010,04,03,18,12,1008.11
2010,04,03,18,13,1008.11
2010,04,03,18,14,1008.15
2010,04,03,18,15,1008.18
2010,04,03,18,16,1008.18
2010,04,03,18,17,1008.16
2010,04,03,18,18,1008.16
2010,04,03,18,19,1008.18
2010,04,03,18,20,1008.16
2010,04,03,18,21,1008.17
2010,04,03,18,22,1008.22
2010,04,03,18,23,1008.23
2010,04,03,18,24,1008.23
2010,04,03,18,25,1008.21
2010,04,03,18,26,1008.22
2010,04,03,18,27,1008.23
2010,04,03,18,28,1008.21
2010,04,03,18,29,1008.20
2010,04,03,18,30,1008.18
2010,04,03,18,31,1008.20
2010,04,03,18,32,1008.22
2010,04,03,18,33,1008.22
2010,04,03,18,34,1008.21
2010,04,03,18,35,1008.20
2010,04,03,18,36,1008.22
2010,04,03,18,37,1008.18
2010,04,03,18,38,1008.17
2010,04,03,18,39,1008.15
2010,04,03,18,40,1008.09
2010,04,03,18,41,1008.09
2010,04,03,18,42,1008.09
2010,04,03,18,43,1008.07
2010,04,03,18,44,1008.08
2010,04,03,18,45,1008.11
2010,04,03,18,46,1008.09
2010,04,03,18,47,1008.08
2010,04,03,18,48,1008.09
2010,04,03,18,49,1008.07
2010,04,03,18,50,1008.12
2010,04,03,18,51,1008.08
2010,04,03,18,52,1008.06
2010,04,03,18,53,1008.03
2010,04,03,18,54,1008.07
2010,04,03,18,55,1008.09
2010,04,03,18,56,1008.04
2010,04,03,18,57,1008.05
2010,04,03,18,58,1008.08
2010,04,03,18,59,1008.07
2010,04,03,19,00,1008.02
2010,04,03,19,01,1008.03
2010,04,03,19,02,1008.08
2010,04,03,19,03,1008.07
2010,04,03,19,04,1008.06
2010,04,03,19,05,1008.04
2010,04,03,19,06,1008.03
2010,04,03,19,07,1008.01
2010,04,03,19,08,1008.03
2010,04,03,19,09,1008.04
2010,04,03,19,10,1008.03
2010,04,03,19,11,1008.03
2010,04,03,19,12,1008.03
2010,04,03,19,13,1007.99
2010,04,03,19,14,1007.94
2010,04,03,19,15,1007.91
2010,04,03,19,16,1007.92
2010,04,03,19,17,1007.91
2010,04,03,19,18,1007.86
2010,04,03,19,19,1007.86
2010,04,03,19,20,1007.84
2010,04,03,19,21,1007.84
2010,04,03,19,22,1007.86
2010,04,03,19,23,1007.88
2010,04,03,19,24,1007.85
2010,04,03,19,25,1007.82
2010,04,03,19,26,1007.84
2010,04,03,19,27,1007.82
2010,04,03,19,28,1007.81
2010,04,03,19,29,1007.84
2010,04,03,19,30,1007.82
2010,04,03,19,31,1007.77
2010,04,03,19,32,1007.78
2010,04,03,19,33,1007.77
2010,04,03,19,34,1007.72
2010,04,03,19,35,1007.71
2010,04,03,19,36,1007.72
2010,04,03,19,37,1007.70
2010,04,03,19,38,1007.69
2010,04,03,19,39,1007.69
2010,04,03,19,40,1007.69
2010,04,03,19,41,1007.69
2010,04,03,19,42,1007.67
2010,04,03,19,43,1007.65
2010,04,03,19,44,1007.65
2010,04,03,19,45,1007.63
2010,04,03,19,46,1007.64
2010,04,03,19,47,1007.69
2010,04,03,19,48,1007.71
2010,04,03,19,49,1007.71
2010,04,03,19,50,1007.72
2010,04,03,19,51,1007.72
2010,04,03,19,52,1007.72
2010,04,03,19,53,1007.72
2010,04,03,19,54,1007.70
2010,04,03,19,55,1007.67
2010,04,03,19,56,1007.65
2010,04,03,19,57,1007.65
2010,04,03,19,58,1007.63
2010,04,03,19,59,1007.62
2010,04,03,20,00,1007.62
2010,04,03,20,01,1007.62
2010,04,03,20,02,1007.60
2010,04,03,20,03,1007.62
2010,04,03,20,04,1007.67
2010,04,03,20,05,1007.72
2010,04,03,20,06,1007.82
2010,04,03,20,07,1007.90
2010,04,03,20,08,1007.89
2010,04,03,20,09,1007.86
2010,04,03,20,10,1007.86
2010,04,03,20,11,1007.86
2010,04,03,20,12,1007.88
2010,04,03,20,13,1007.87
2010,04,03,20,14,1007.88
2010,04,03,20,15,1007.89
2010,04,03,20,16,1007.91
2010,04,03,20,17,1007.93
2010,04,03,20,18,1007.89
2010,04,03,20,19,1007.88
2010,04,03,20,20,1007.89
2010,04,03,20,21,1007.89
2010,04,03,20,22,1007.89
2010,04,03,20,23,1007.87
2010,04,03,20,24,1007.86
2010,04,03,20,25,1007.83
2010,04,03,20,26,1007.79
2010,04,03,20,27,1007.79
2010,04,03,20,28,1007.79
2010,04,03,20,29,1007.81
2010,04,03,20,30,1007.82
2010,04,03,20,31,1007.84
2010,04,03,20,32,1007.86
2010,04,03,20,33,1007.86
2010,04,03,20,34,1007.86
2010,04,03,20,35,1007.88
2010,04,03,20,36,1007.89
2010,04,03,20,37,1007.89
2010,04,03,20,38,1007.87
2010,04,03,20,39,1007.92
2010,04,03,20,40,1007.98
2010,04,03,20,41,1007.99
2010,04,03,20,42,1007.97
2010,04,03,20,43,1007.96
2010,04,03,20,44,1007.96
2010,04,03,20,45,1007.96
2010,04,03,20,46,1007.94
2010,04,03,20,47,1007.93
2010,04,03,20,48,1007.89
2010,04,03,20,49,1007.88
2010,04,03,20,50,1007.88
2010,04,03,20,51,1007.86
2010,04,03,20,52,1007.88
2010,04,03,20,53,1007.89
2010,04,03,20,54,1007.87
2010,04,03,20,55,1007.90
2010,04,03,20,56,1007.91
2010,04,03,20,57,1007.89
2010,04,03,20,58,1007.89
2010,04,03,20,59,1007.89
2010,04,03,21,00,1007.91
2010,04,03,21,01,1007.93
2010,04,03,21,02,1007.93
2010,04,03,21,03,1007.91
2010,04,03,21,04,1007.91
2010,04,03,21,05,1007.91
2010,04,03,21,06,1007.89
2010,04,03,21,07,1007.87
2010,04,03,21,08,1007.84
2010,04,03,21,09,1007.84
2010,04,03,21,10,1007.88
2010,04,03,21,11,1007.89
2010,04,03,21,12,1007.85
2010,04,03,21,13,1007.82
2010,04,03,21,14,1007.80
2010,04,03,21,15,1007.79
2010,04,03,21,16,1007.80
2010,04,03,21,17,1007.80
2010,04,03,21,18,1007.81
2010,04,03,21,19,1007.82
2010,04,03,21,20,1007.82
2010,04,03,21,21,1007.80
2010,04,03,21,22,1007.83
2010,04,03,21,23,1007.88
2010,04,03,21,24,1007.87
2010,04,03,21,25,1007.84
2010,04,03,21,26,1007.80
2010,04,03,21,27,1007.79
2010,04,03,21,28,1007.79
2010,04,03,21,29,1007.77
2010,04,03,21,30,1007.74
2010,04,03,21,31,1007.76
2010,04,03,21,32,1007.75
2010,04,03,21,33,1007.70
2010,04,03,21,34,1007.71
2010,04,03,21,35,1007.70
2010,04,03,21,36,1007.67
2010,04,03,21,37,1007.63
2010,04,03,21,38,1007.64
2010,04,03,21,39,1007.62
2010,04,03,21,40,1007.61
2010,04,03,21,41,1007.62
2010,04,03,21,42,1007.62
2010,04,03,21,43,1007.64
2010,04,03,21,44,1007.63
2010,04,03,21,45,1007.66
2010,04,03,21,46,1007.65
2010,04,03,21,47,1007.60
2010,04,03,21,48,1007.59
2010,04,03,21,49,1007.62
2010,04,03,21,50,1007.63
2010,04,03,21,51,1007.62
2010,04,03,21,52,1007.62
2010,04,03,21,53,1007.60
2010,04,03,21,54,1007.57
2010,04,03,21,55,1007.55
2010,04,03,21,56,1007.55
2010,04,03,21,57,1007.51
2010,04,03,21,58,1007.50
2010,04,03,21,59,1007.48
2010,04,03,22,00,1007.43
2010,04,03,22,01,1007.44
2010,04,03,22,02,1007.45
2010,04,03,22,03,1007.45
2010,04,03,22,04,1007.45
2010,04,03,22,05,1007.47
2010,04,03,22,06,1007.48
2010,04,03,22,07,1007.46
2010,04,03,22,08,1007.47
2010,04,03,22,09,1007.50
2010,04,03,22,10,1007.52
2010,04,03,22,11,1007.52
2010,04,03,22,12,1007.50
2010,04,03,22,13,1007.48
2010,04,03,22,14,1007.50
2010,04,03,22,15,1007.50
2010,04,03,22,16,1007.48
2010,04,03,22,17,1007.45
2010,04,03,22,18,1007.44
2010,04,03,22,19,1007.43
2010,04,03,22,20,1007.43
2010,04,03,22,21,1007.45
2010,04,03,22,22,1007.43
2010,04,03,22,23,1007.45
2010,04,03,22,24,1007.48
2010,04,03,22,25,1007.48
2010,04,03,22,26,1007.48
2010,04,03,22,27,1007.46
2010,04,03,22,28,1007.47
2010,04,03,22,29,1007.47
2010,04,03,22,30,1007.45
2010,04,03,22,31,1007.47
2010,04,03,22,32,1007.46
2010,04,03,22,33,1007.43
2010,04,03,22,34,1007.40
2010,04,03,22,35,1007.38
2010,04,03,22,36,1007.40
2010,04,03,22,37,1007.40
2010,04,03,22,38,1007.36
2010,04,03,22,39,1007.34
2010,04,03,22,40,1007.35
2010,04,03,22,41,1007.36
2010,04,03,22,42,1007.36
2010,04,03,22,43,1007.38
2010,04,03,22,44,1007.36
2010,04,03,22,45,1007.35
2010,04,03,22,46,1007.33
2010,04,03,22,47,1007.32
2010,04,03,22,48,1007.32
2010,04,03,22,49,1007.32
2010,04,03,22,50,1007.30
2010,04,03,22,51,1007.28
2010,04,03,22,52,1007.28
2010,04,03,22,53,1007.27
2010,04,03,22,54,1007.25
2010,04,03,22,55,1007.25
2010,04,03,22,56,1007.23
2010,04,03,22,57,1007.23
2010,04,03,22,58,1007.25
2010,04,03,22,59,1007.23
2010,04,03,23,00,1007.23
2010,04,03,23,01,1007.25
2010,04,03,23,02,1007.27
2010,04,03,23,03,1007.28
2010,04,03,23,04,1007.27
2010,04,03,23,05,1007.23
2010,04,03,23,06,1007.23
2010,04,03,23,07,1007.25
2010,04,03,23,08,1007.23
2010,04,03,23,09,1007.23
2010,04,03,23,10,1007.23
2010,04,03,23,11,1007.21
2010,04,03,23,12,1007.21
2010,04,03,23,13,1007.21
2010,04,03,23,14,1007.21
2010,04,03,23,15,1007.21
2010,04,03,23,16,1007.19
2010,04,03,23,17,1007.18
2010,04,03,23,18,1007.16
2010,04,03,23,19,1007.13
2010,04,03,23,20,1007.07
2010,04,03,23,21,1007.06
2010,04,03,23,22,1007.06
2010,04,03,23,23,1007.06
2010,04,03,23,24,1007.08
2010,04,03,23,25,1007.08
2010,04,03,23,26,1007.06
2010,04,03,23,27,1007.02
2010,04,03,23,28,1006.97
2010,04,03,23,29,1006.94
2010,04,03,23,30,1006.94
2010,04,03,23,31,1006.92
2010,04,03,23,32,1006.91
2010,04,03,23,33,1006.91
2010,04,03,23,34,1006.91
2010,04,03,23,35,1006.89
2010,04,03,23,36,1006.88
2010,04,03,23,37,1006.86
2010,04,03,23,38,1006.86
2010,04,03,23,39,1006.86
2010,04,03,23,40,1006.82
2010,04,03,23,41,1006.83
2010,04,03,23,42,1006.80
2010,04,03,23,43,1006.81
2010,04,03,23,44,1006.82
2010,04,03,23,45,1006.79
2010,04,03,23,46,1006.79
2010,04,03,23,47,1006.79
2010,04,03,23,48,1006.77
2010,04,03,23,49,1006.79
2010,04,03,23,50,1006.79
2010,04,03,23,51,1006.76
2010,04,03,23,52,1006.70
2010,04,03,23,53,1006.67
2010,04,03,23,54,1006.64
2010,04,03,23,55,1006.62
2010,04,03,23,56,1006.62
2010,04,03,23,57,1006.60
2010,04,03,23,58,1006.60
2010,04,03,23,59,1006.60
